Main page
METAR-TAF:

METAR-TAF

Airports :

Mahshahr, Iran

Mahshahr Airport

latitude: 30-33-23N, longitude: 049-09-07E, elevation: 2 m

Current weather observation

The report was made 57 minutes ago, at 04:00 UTC
Wind 4 kt from the East/Southeast
Temperature 33°C
Humidity 80%
Pressure 1002 hPa
Visibility: 2500 m
haze

METAR: OIAM 240400Z 12004KT 2500 HZ NSC 33/29 Q1002

Time: 09:27 (04:57 UTC)


TAF: missing

Weather observations and forecasts of more than 4000 airports (METAR and TAF reports).

The available stations are represented by yellow and red dots on the map.

Hover mouse over dot to see the name of the station.

Then click to see weather observations and forecasts.

To change the map : click on the green buttons with a black cross to zoom in, on the green button with a dash to zoom out, or on the green arrows for adjacent maps.


METAR-TAF: